Location: Roland
(31.1349°N, 85.4372°W)
Time: 03:58:39
(UTC+00:00)

Courier 1B - Pass Details

Date: 24 April 2021
Orbit: 962 x 1209 km, 28.3° (Epoch: 07 May)

Event Time Altitude Azimuth Distance (km) Brightness Sun altitude
Rises 19:03:00 0° 269° (W) 3,753 10.9 63.7°
Reaches altitude 10° 19:05:45 10° 267° (W) 2,770 10.4 63.3°
Maximum altitude 19:12:22 68° 186° (S) 1,042 9.4 62.1°
Drops below altitude 10° 19:18:46 10° 104° (ESE) 2,686 9.7 61.0°
Sets 19:21:24 0° 102° (ESE) 3,631 10.3 60.5°
